Location: Atlantic Beach
(40.5890°N, 73.7290°W)
Time: 04:31:30
(UTC+00:00)

Okean O Rocket - Pass Details

Date: 29 October 2020
Orbit: 622 x 645 km, 98.2° (Epoch: 23 November)

Event Time Altitude Azimuth Distance (km) Brightness Sun altitude
Rises 22:12:36 0° 161° (SSE) 2,907 5.0 -4.1°
Reaches altitude 10° 22:14:47 10° 159° (SSE) 2,000 4.1 -4.5°
Maximum altitude 22:19:07 74° 76° (ENE) 655 1.6 -5.3°
Drops below altitude 10° 22:23:29 10° 351° (N) 2,005 4.2 -6.1°
Sets 22:25:40 0° 349° (N) 2,914 5.0 -6.6°
